{"data":{"norad_id":62744,"epoch":"2026-05-24T23:11:33.033120Z","epoch_age_seconds":81412,"freshness":"FRESH","line1":"1 62744U 25014K   26144.96635455  .00014986  00000+0  55278-3 0  9992","line2":"2 62744  43.0037  87.0172 0001346 251.2592 108.8113 15.27592960 74882","mean_motion":15.2759296,"eccentricity":0.0001346,"inclination_deg":43.0037,"raan_deg":87.0172,"arg_perigee_deg":251.2592,"mean_anomaly_deg":108.8113,"bstar":0.00055278,"rev_number":7488,"period_min":94.265948960645,"perigee_km":482.08677898653,"apogee_km":483.93379983684,"semimajor_km":6861.1472894117,"source":"CELESTRAK","updated_at":"2026-05-25T13:38:19.739996Z"}}